Time,TemperatureF,DewpointF,PressureIn,WindDirection,WindDirectionDegrees,WindSpeedMPH,WindSpeedGustMPH,Humidity,HourlyPrecipIn,Conditions,Clouds,dailyrainin,SoftwareType,DateUTC
2013-09-01 00:00:00,73.2,69.4,29.73,East,92,0.0,0.0,88,0.00,,,0.07,Wunderground v.1.15,2013-09-01 05:00:00,
2013-09-01 00:05:00,73.1,69.7,29.73,East,94,0.0,0.0,89,0.00,,,0.00,Wunderground v.1.15,2013-09-01 05:05:00,
2013-09-01 00:10:00,72.9,69.5,29.74,East,101,0.0,0.0,89,0.00,,,0.00,Wunderground v.1.15,2013-09-01 05:10:00,
2013-09-01 00:20:00,72.6,69.2,29.74,East,101,0.0,0.0,89,0.00,,,0.00,Wunderground v.1.15,2013-09-01 05:20:00,
2013-09-01 00:25:00,72.4,69.0,29.74,East,101,0.0,0.0,89,0.00,,,0.00,Wunderground v.1.15,2013-09-01 05:25:00,
2013-09-01 00:30:00,72.3,69.2,29.74,East,98,0.0,0.0,90,0.00,,,0.00,Wunderground v.1.15,2013-09-01 05:30:00,
2013-09-01 00:35:00,72.2,69.1,29.74,East,98,0.0,0.0,90,0.00,,,0.00,Wunderground v.1.15,2013-09-01 05:35:00,
2013-09-01 00:40:00,72.2,69.1,29.74,East,98,0.0,0.0,90,0.00,,,0.00,Wunderground v.1.15,2013-09-01 05:40:00,
2013-09-01 00:45:00,72.1,69.0,29.74,East,99,0.0,0.0,90,0.00,,,0.00,Wunderground v.1.15,2013-09-01 05:45:00,
2013-09-01 00:50:00,72.0,68.9,29.74,East,99,0.0,0.0,90,0.00,,,0.00,Wunderground v.1.15,2013-09-01 05:50:00,
2013-09-01 01:00:00,71.8,68.7,29.74,East,101,0.0,0.0,90,0.00,,,0.00,Wunderground v.1.15,2013-09-01 06:00:00,
2013-09-01 01:05:00,71.8,69.0,29.74,ESE,103,0.0,0.0,91,0.00,,,0.00,Wunderground v.1.15,2013-09-01 06:05:00,
2013-09-01 01:15:00,71.7,68.9,29.73,ESE,105,0.0,0.0,91,0.00,,,0.00,Wunderground v.1.15,2013-09-01 06:15:00,
2013-09-01 01:20:00,71.6,68.8,29.73,ESE,105,0.0,0.0,91,0.00,,,0.00,Wunderground v.1.15,2013-09-01 06:20:00,
2013-09-01 01:25:00,71.4,68.6,29.73,ESE,103,0.0,0.0,91,0.00,,,0.00,Wunderground v.1.15,2013-09-01 06:25:00,
2013-09-01 01:30:00,71.3,68.5,29.73,ESE,104,0.0,0.0,91,0.00,,,0.00,Wunderground v.1.15,2013-09-01 06:30:00,
2013-09-01 01:35:00,71.3,68.5,29.72,ESE,104,0.0,0.0,91,0.00,,,0.00,Wunderground v.1.15,2013-09-01 06:35:00,
2013-09-01 01:40:00,71.2,68.4,29.73,ESE,105,0.0,0.0,91,0.00,,,0.00,Wunderground v.1.15,2013-09-01 06:40:00,
2013-09-01 01:45:00,71.3,68.9,29.73,East,101,0.0,0.0,92,0.00,,,0.00,Wunderground v.1.15,2013-09-01 06:45:00,
2013-09-01 01:50:00,71.3,68.9,29.73,ESE,103,0.0,0.0,92,0.00,,,0.00,Wunderground v.1.15,2013-09-01 06:50:00,
2013-09-01 01:55:00,71.2,68.8,29.74,ESE,103,0.0,0.0,92,0.00,,,0.00,Wunderground v.1.15,2013-09-01 06:55:00,
2013-09-01 02:05:00,71.1,68.7,29.74,ESE,103,0.0,0.0,92,0.00,,,0.00,Wunderground v.1.15,2013-09-01 07:05:00,
2013-09-01 02:15:00,71.0,68.6,29.74,ESE,103,0.0,0.0,92,0.00,,,0.00,Wunderground v.1.15,2013-09-01 07:15:00,
2013-09-01 02:20:00,70.9,68.5,29.74,ESE,103,0.0,0.0,92,0.00,,,0.00,Wunderground v.1.15,2013-09-01 07:20:00,
2013-09-01 02:25:00,70.8,68.4,29.74,ESE,103,0.0,0.0,92,0.00,,,0.00,Wunderground v.1.15,2013-09-01 07:25:00,
2013-09-01 02:30:00,70.8,68.7,29.74,ESE,103,0.0,0.0,93,0.00,,,0.00,Wunderground v.1.15,2013-09-01 07:30:00,
2013-09-01 02:35:00,70.8,68.4,29.75,ESE,103,0.0,0.0,92,0.00,,,0.00,Wunderground v.1.15,2013-09-01 07:35:00,
2013-09-01 02:40:00,70.7,68.6,29.75,ESE,103,0.0,0.0,93,0.00,,,0.00,Wunderground v.1.15,2013-09-01 07:40:00,
2013-09-01 02:45:00,70.6,68.5,29.75,ESE,103,0.0,0.0,93,0.00,,,0.00,Wunderground v.1.15,2013-09-01 07:45:00,
2013-09-01 02:50:00,70.5,68.4,29.75,ESE,103,0.0,0.0,93,0.00,,,0.00,Wunderground v.1.15,2013-09-01 07:50:00,
2013-09-01 03:00:00,70.4,68.3,29.75,ESE,103,0.0,0.0,93,0.00,,,0.00,Wunderground v.1.15,2013-09-01 08:00:00,
2013-09-01 03:05:00,70.4,68.3,29.75,ESE,103,0.0,0.0,93,0.00,,,0.00,Wunderground v.1.15,2013-09-01 08:05:00,
2013-09-01 03:10:00,70.4,68.3,29.75,ESE,103,0.0,0.0,93,0.00,,,0.00,Wunderground v.1.15,2013-09-01 08:10:00,
2013-09-01 03:15:00,70.4,68.3,29.75,ESE,103,0.0,0.0,93,0.00,,,0.00,Wunderground v.1.15,2013-09-01 08:15:00,
2013-09-01 03:25:00,70.4,68.6,29.76,ESE,103,0.0,0.0,94,0.00,,,0.00,Wunderground v.1.15,2013-09-01 08:25:00,
2013-09-01 03:30:00,70.5,68.7,29.75,ESE,103,0.0,0.0,94,0.00,,,0.00,Wunderground v.1.15,2013-09-01 08:30:00,
2013-09-01 03:35:00,70.5,68.7,29.75,ESE,103,0.0,0.0,94,0.00,,,0.00,Wunderground v.1.15,2013-09-01 08:35:00,
2013-09-01 03:40:00,70.5,68.7,29.75,ESE,103,0.0,0.0,94,0.00,,,0.00,Wunderground v.1.15,2013-09-01 08:40:00,
2013-09-01 03:45:00,70.5,68.7,29.75,ESE,103,0.0,0.0,94,0.00,,,0.00,Wunderground v.1.15,2013-09-01 08:45:00,
2013-09-01 03:50:00,70.4,68.6,29.75,ESE,103,0.0,0.0,94,0.00,,,0.00,Wunderground v.1.15,2013-09-01 08:50:00,
2013-09-01 03:55:00,70.4,68.6,29.76,ESE,103,0.0,0.0,94,0.00,,,0.00,Wunderground v.1.15,2013-09-01 08:55:00,
2013-09-01 04:05:00,70.6,68.8,29.75,ESE,103,0.0,0.0,94,0.00,,,0.00,Wunderground v.1.15,2013-09-01 09:05:00,
2013-09-01 04:10:00,70.6,68.8,29.74,ESE,103,0.0,0.0,94,0.00,,,0.00,Wunderground v.1.15,2013-09-01 09:10:00,
2013-09-01 04:15:00,70.6,68.8,29.74,ESE,103,0.0,0.0,94,0.00,,,0.00,Wunderground v.1.15,2013-09-01 09:15:00,
2013-09-01 04:20:00,70.6,68.8,29.75,ESE,103,0.0,0.0,94,0.00,,,0.00,Wunderground v.1.15,2013-09-01 09:20:00,
2013-09-01 04:25:00,70.7,68.9,29.75,ESE,103,0.0,0.0,94,0.00,,,0.00,Wunderground v.1.15,2013-09-01 09:25:00,
2013-09-01 04:35:00,70.8,69.0,29.75,SSE,151,0.0,0.0,94,0.00,,,0.00,Wunderground v.1.15,2013-09-01 09:35:00,
2013-09-01 04:40:00,70.8,69.0,29.75,South,172,0.0,0.0,94,0.00,,,0.00,Wunderground v.1.15,2013-09-01 09:40:00,
2013-09-01 04:45:00,70.8,69.0,29.76,South,172,0.0,0.0,94,0.00,,,0.00,Wunderground v.1.15,2013-09-01 09:45:00,
2013-09-01 04:50:00,70.9,69.1,29.76,WSW,238,0.0,0.0,94,0.00,,,0.00,Wunderground v.1.15,2013-09-01 09:50:00,
2013-09-01 05:00:00,71.0,69.2,29.78,WSW,248,0.0,0.0,94,0.00,,,0.00,Wunderground v.1.15,2013-09-01 10:00:00,
2013-09-01 05:05:00,71.0,69.2,29.79,WNW,290,0.0,0.0,94,0.00,,,0.00,Wunderground v.1.15,2013-09-01 10:05:00,
2013-09-01 05:10:00,70.8,68.7,29.79,West,263,0.0,0.0,93,0.00,,,0.01,Wunderground v.1.15,2013-09-01 10:10:00,
2013-09-01 05:15:00,70.7,68.9,29.79,WNW,298,0.0,0.0,94,0.00,,,0.01,Wunderground v.1.15,2013-09-01 10:15:00,
2013-09-01 05:20:00,70.6,68.8,29.78,West,275,1.0,1.0,94,0.00,,,0.01,Wunderground v.1.15,2013-09-01 10:20:00,
2013-09-01 05:25:00,70.5,69.0,29.77,SSW,200,2.0,3.0,95,0.00,,,0.01,Wunderground v.1.15,2013-09-01 10:25:00,
2013-09-01 05:30:00,70.6,69.1,29.76,South,186,2.0,4.0,95,0.00,,,0.02,Wunderground v.1.15,2013-09-01 10:30:00,
2013-09-01 05:35:00,70.7,69.2,29.75,SSW,194,2.0,4.0,95,0.00,,,0.02,Wunderground v.1.15,2013-09-01 10:35:00,
2013-09-01 05:45:00,70.8,69.3,29.74,SSW,203,2.0,2.0,95,0.04,,,0.03,Wunderground v.1.15,2013-09-01 10:45:00,
2013-09-01 05:50:00,70.7,69.2,29.73,SSW,209,1.0,1.0,95,0.04,,,0.03,Wunderground v.1.15,2013-09-01 10:50:00,
2013-09-01 06:00:00,70.6,69.1,29.68,SE,130,1.0,1.0,95,0.06,,,0.04,Wunderground v.1.15,2013-09-01 11:00:00,
2013-09-01 06:05:00,70.4,68.9,29.63,SE,146,1.0,3.0,95,0.07,,,0.05,Wunderground v.1.15,2013-09-01 11:05:00,
2013-09-01 06:10:00,70.1,68.3,29.62,SE,128,1.0,1.0,94,0.07,,,0.05,Wunderground v.1.15,2013-09-01 11:10:00,
2013-09-01 06:15:00,70.0,67.9,29.63,SW,235,1.0,1.0,93,0.06,,,0.06,Wunderground v.1.15,2013-09-01 11:15:00,
2013-09-01 06:20:00,69.9,67.8,29.65,WSW,246,2.0,2.0,93,0.06,,,0.06,Wunderground v.1.15,2013-09-01 11:20:00,
2013-09-01 06:25:00,69.8,67.4,29.64,SSW,202,3.0,7.0,92,0.04,,,0.06,Wunderground v.1.15,2013-09-01 11:25:00,
2013-09-01 06:30:00,69.8,66.7,29.64,SW,221,3.0,3.0,90,0.00,,,0.06,Wunderground v.1.15,2013-09-01 11:30:00,
2013-09-01 06:35:00,69.8,66.4,29.65,WSW,253,2.0,3.0,89,0.00,,,0.06,Wunderground v.1.15,2013-09-01 11:35:00,
2013-09-01 06:40:00,69.7,66.0,29.65,SSW,210,1.0,1.0,88,0.00,,,0.06,Wunderground v.1.15,2013-09-01 11:40:00,
2013-09-01 06:50:00,69.4,66.3,29.69,West,262,0.0,0.0,90,0.00,,,0.06,Wunderground v.1.15,2013-09-01 11:50:00,
2013-09-01 07:00:00,69.0,65.6,29.72,NNW,347,0.0,0.0,89,0.00,,,0.06,Wunderground v.1.15,2013-09-01 12:00:00,
2013-09-01 07:05:00,69.2,66.1,29.73,NNE,21,1.0,1.0,90,0.00,,,0.06,Wunderground v.1.15,2013-09-01 12:05:00,
2013-09-01 07:10:00,69.4,65.7,29.73,North,5,1.0,1.0,88,0.00,,,0.06,Wunderground v.1.15,2013-09-01 12:10:00,
2013-09-01 07:15:00,69.7,65.7,29.74,NNW,344,1.0,1.0,87,0.00,,,0.06,Wunderground v.1.15,2013-09-01 12:15:00,
2013-09-01 07:20:00,70.2,65.5,29.74,NNW,340,1.0,1.0,85,0.00,,,0.06,Wunderground v.1.15,2013-09-01 12:20:00,
2013-09-01 07:25:00,70.8,65.4,29.75,North,355,1.0,1.0,83,0.00,,,0.06,Wunderground v.1.15,2013-09-01 12:25:00,
2013-09-01 07:30:00,71.4,65.3,29.75,North,360,1.0,1.0,81,0.00,,,0.06,Wunderground v.1.15,2013-09-01 12:30:00,
2013-09-01 07:40:00,72.2,65.3,29.76,NNW,331,0.0,0.0,79,0.00,,,0.06,Wunderground v.1.15,2013-09-01 12:40:00,
2013-09-01 07:45:00,72.6,66.4,29.76,North,360,0.0,0.0,81,0.00,,,0.06,Wunderground v.1.15,2013-09-01 12:45:00,
2013-09-01 07:50:00,72.7,66.9,29.76,NNW,337,0.0,0.0,82,0.00,,,0.06,Wunderground v.1.15,2013-09-01 12:50:00,
2013-09-01 07:55:00,72.7,67.6,29.76,NNW,344,0.0,0.0,84,0.00,,,0.06,Wunderground v.1.15,2013-09-01 12:55:00,
2013-09-01 08:00:00,72.7,67.9,29.76,North,351,0.0,0.0,85,0.00,,,0.06,Wunderground v.1.15,2013-09-01 13:00:00,
2013-09-01 08:05:00,72.6,68.2,29.76,North,355,0.0,0.0,86,0.00,,,0.06,Wunderground v.1.15,2013-09-01 13:05:00,
2013-09-01 08:10:00,72.5,68.1,29.76,NNE,26,0.0,0.0,86,0.00,,,0.06,Wunderground v.1.15,2013-09-01 13:10:00,
2013-09-01 08:15:00,72.5,67.7,29.76,North,355,0.0,0.0,85,0.00,,,0.06,Wunderground v.1.15,2013-09-01 13:15:00,
2013-09-01 08:20:00,72.4,67.6,29.76,WNW,294,0.0,0.0,85,0.00,,,0.06,Wunderground v.1.15,2013-09-01 13:20:00,
2013-09-01 08:30:00,72.4,67.6,29.77,NNW,343,0.0,0.0,85,0.00,,,0.06,Wunderground v.1.15,2013-09-01 13:30:00,
2013-09-01 08:35:00,72.4,67.6,29.77,NW,310,0.0,2.0,85,0.00,,,0.06,Wunderground v.1.15,2013-09-01 13:35:00,
2013-09-01 08:40:00,72.8,68.0,29.77,North,355,1.0,1.0,85,0.00,,,0.06,Wunderground v.1.15,2013-09-01 13:40:00,
2013-09-01 08:45:00,73.1,68.0,29.77,NE,46,0.0,1.0,84,0.00,,,0.06,Wunderground v.1.15,2013-09-01 13:45:00,
2013-09-01 08:50:00,73.5,68.4,29.77,NNW,348,0.0,1.0,84,0.00,,,0.06,Wunderground v.1.15,2013-09-01 13:50:00,
2013-09-01 08:55:00,73.8,68.3,29.77,North,9,0.0,1.0,83,0.00,,,0.06,Wunderground v.1.15,2013-09-01 13:55:00,
2013-09-01 09:00:00,74.1,68.3,29.77,NNW,336,0.0,1.0,82,0.00,,,0.06,Wunderground v.1.15,2013-09-01 14:00:00,
2013-09-01 09:05:00,74.4,68.5,29.77,NW,323,1.0,1.0,82,0.00,,,0.06,Wunderground v.1.15,2013-09-01 14:05:00,
2013-09-01 09:10:00,74.5,68.3,29.78,NW,321,1.0,1.0,81,0.00,,,0.06,Wunderground v.1.15,2013-09-01 14:10:00,
2013-09-01 09:20:00,74.8,67.8,29.77,NNW,336,1.0,1.0,79,0.00,,,0.06,Wunderground v.1.15,2013-09-01 14:20:00,
2013-09-01 09:30:00,75.6,68.3,29.78,NNE,18,0.0,0.0,78,0.00,,,0.06,Wunderground v.1.15,2013-09-01 14:30:00,
2013-09-01 09:35:00,75.9,68.5,29.78,West,267,0.0,0.0,78,0.00,,,0.06,Wunderground v.1.15,2013-09-01 14:35:00,
2013-09-01 09:40:00,76.1,68.0,29.78,SSW,197,0.0,0.0,76,0.00,,,0.06,Wunderground v.1.15,2013-09-01 14:40:00,
2013-09-01 09:45:00,76.2,68.5,29.78,WNW,298,0.0,0.0,77,0.00,,,0.06,Wunderground v.1.15,2013-09-01 14:45:00,
2013-09-01 09:50:00,76.6,68.1,29.78,WNW,294,0.0,0.0,75,0.00,,,0.06,Wunderground v.1.15,2013-09-01 14:50:00,
2013-09-01 09:55:00,76.6,68.1,29.78,NW,315,0.0,0.0,75,0.00,,,0.06,Wunderground v.1.15,2013-09-01 14:55:00,
2013-09-01 10:00:00,76.6,67.7,29.78,West,267,0.0,0.0,74,0.00,,,0.06,Wunderground v.1.15,2013-09-01 15:00:00,
2013-09-01 10:05:00,76.8,68.3,29.78,WSW,256,0.0,0.0,75,0.00,,,0.06,Wunderground v.1.15,2013-09-01 15:05:00,
2013-09-01 10:15:00,77.8,68.0,29.77,NNW,340,0.0,0.0,72,0.00,,,0.06,Wunderground v.1.15,2013-09-01 15:15:00,
2013-09-01 10:20:00,78.2,68.4,29.77,WNW,302,0.0,0.0,72,0.00,,,0.06,Wunderground v.1.15,2013-09-01 15:20:00,
2013-09-01 10:25:00,78.4,68.6,29.77,North,360,0.0,0.0,72,0.00,,,0.06,Wunderground v.1.15,2013-09-01 15:25:00,
2013-09-01 10:35:00,78.9,68.3,29.76,West,275,0.0,0.0,70,0.00,,,0.06,Wunderground v.1.15,2013-09-01 15:35:00,
2013-09-01 10:40:00,79.2,68.6,29.76,NNW,346,0.0,0.0,70,0.00,,,0.06,Wunderground v.1.15,2013-09-01 15:40:00,
2013-09-01 10:45:00,79.0,68.0,29.76,West,272,0.0,0.0,69,0.00,,,0.06,Wunderground v.1.15,2013-09-01 15:45:00,
2013-09-01 10:50:00,79.1,68.1,29.76,North,350,0.0,0.0,69,0.00,,,0.06,Wunderground v.1.15,2013-09-01 15:50:00,
2013-09-01 10:55:00,79.1,67.6,29.76,NNW,346,0.0,0.0,68,0.00,,,0.06,Wunderground v.1.15,2013-09-01 15:55:00,
2013-09-01 11:00:00,79.1,68.1,29.76,WNW,295,0.0,0.0,69,0.00,,,0.06,Wunderground v.1.15,2013-09-01 16:00:00,
2013-09-01 11:05:00,79.0,67.5,29.76,SW,233,0.0,0.0,68,0.00,,,0.06,Wunderground v.1.15,2013-09-01 16:05:00,
2013-09-01 11:15:00,78.9,68.3,29.76,WNW,303,0.0,0.0,70,0.00,,,0.06,Wunderground v.1.15,2013-09-01 16:15:00,
2013-09-01 11:20:00,79.1,68.1,29.76,WNW,298,0.0,0.0,69,0.00,,,0.06,Wunderground v.1.15,2013-09-01 16:20:00,
2013-09-01 11:25:00,79.1,68.1,29.76,NW,318,0.0,0.0,69,0.00,,,0.06,Wunderground v.1.15,2013-09-01 16:25:00,
2013-09-01 11:30:00,79.2,68.1,29.76,WNW,294,0.0,0.0,69,0.00,,,0.06,Wunderground v.1.15,2013-09-01 16:30:00,
2013-09-01 11:35:00,79.5,68.0,29.76,ENE,63,0.0,0.0,68,0.00,,,0.06,Wunderground v.1.15,2013-09-01 16:35:00,
2013-09-01 11:45:00,80.1,67.3,29.76,WNW,299,0.0,0.0,65,0.00,,,0.06,Wunderground v.1.15,2013-09-01 16:45:00,
2013-09-01 11:50:00,80.1,64.0,29.76,North,350,0.0,0.0,58,0.00,,,0.06,Wunderground v.1.15,2013-09-01 16:50:00,
2013-09-01 11:55:00,80.2,64.6,29.76,NNW,345,0.0,0.0,59,0.00,,,0.06,Wunderground v.1.15,2013-09-01 16:55:00,
2013-09-01 12:05:00,80.8,64.1,29.76,North,360,2.0,4.0,57,0.00,,,0.06,Wunderground v.1.15,2013-09-01 17:05:00,
2013-09-01 12:10:00,80.7,63.5,29.77,North,360,3.0,3.0,56,0.00,,,0.06,Wunderground v.1.15,2013-09-01 17:10:00,
2013-09-01 12:15:00,80.6,62.4,29.76,NE,40,4.0,4.0,54,0.00,,,0.06,Wunderground v.1.15,2013-09-01 17:15:00,
2013-09-01 12:20:00,80.6,61.3,29.77,NNW,341,3.0,3.0,52,0.00,,,0.06,Wunderground v.1.15,2013-09-01 17:20:00,
2013-09-01 12:25:00,80.6,61.9,29.77,NNW,331,1.0,3.0,53,0.00,,,0.06,Wunderground v.1.15,2013-09-01 17:25:00,
2013-09-01 12:30:00,81.0,62.3,29.76,NW,326,0.0,0.0,53,0.00,,,0.06,Wunderground v.1.15,2013-09-01 17:30:00,
2013-09-01 12:35:00,81.2,62.4,29.76,NNW,334,0.0,0.0,53,0.00,,,0.06,Wunderground v.1.15,2013-09-01 17:35:00,
2013-09-01 12:40:00,81.0,62.3,29.76,NNE,15,0.0,2.0,53,0.00,,,0.06,Wunderground v.1.15,2013-09-01 17:40:00,
2013-09-01 12:50:00,81.3,62.5,29.77,North,9,3.0,3.0,53,0.00,,,0.06,Wunderground v.1.15,2013-09-01 17:50:00,
2013-09-01 12:55:00,81.1,62.9,29.77,NW,325,4.0,4.0,54,0.00,,,0.06,Wunderground v.1.15,2013-09-01 17:55:00,
2013-09-01 13:05:00,82.1,62.2,29.77,North,355,0.0,2.0,51,0.00,,,0.06,Wunderground v.1.15,2013-09-01 18:05:00,
2013-09-01 13:10:00,81.8,62.5,29.77,North,360,2.0,6.0,52,0.00,,,0.06,Wunderground v.1.15,2013-09-01 18:10:00,
2013-09-01 13:15:00,81.4,62.1,29.78,North,360,3.0,6.0,52,0.00,,,0.06,Wunderground v.1.15,2013-09-01 18:15:00,
2013-09-01 13:20:00,81.4,61.5,29.78,North,355,3.0,3.0,51,0.00,,,0.06,Wunderground v.1.15,2013-09-01 18:20:00,
2013-09-01 13:25:00,81.3,59.7,29.78,WNW,295,4.0,4.0,48,0.00,,,0.06,Wunderground v.1.15,2013-09-01 18:25:00,
2013-09-01 13:30:00,81.4,60.4,29.78,North,9,3.0,3.0,49,0.00,,,0.06,Wunderground v.1.15,2013-09-01 18:30:00,
2013-09-01 13:35:00,81.7,61.2,29.78,ENE,78,2.0,3.0,50,0.00,,,0.06,Wunderground v.1.15,2013-09-01 18:35:00,
2013-09-01 13:45:00,81.5,60.5,29.78,NNE,24,4.0,7.0,49,0.00,,,0.06,Wunderground v.1.15,2013-09-01 18:45:00,
2013-09-01 13:50:00,81.4,59.8,29.78,NE,37,5.0,5.0,48,0.00,,,0.06,Wunderground v.1.15,2013-09-01 18:50:00,
2013-09-01 13:55:00,81.5,59.3,29.78,North,355,4.0,7.0,47,0.00,,,0.06,Wunderground v.1.15,2013-09-01 18:55:00,
2013-09-01 14:00:00,81.6,59.4,29.78,NE,36,3.0,3.0,47,0.00,,,0.06,Wunderground v.1.15,2013-09-01 19:00:00,
2013-09-01 14:05:00,81.6,59.4,29.78,NNW,332,3.0,3.0,47,0.00,,,0.06,Wunderground v.1.15,2013-09-01 19:05:00,
2013-09-01 14:10:00,81.5,59.9,29.78,North,360,3.0,3.0,48,0.00,,,0.06,Wunderground v.1.15,2013-09-01 19:10:00,
2013-09-01 14:20:00,81.7,60.1,29.79,NNW,345,3.0,3.0,48,0.00,,,0.06,Wunderground v.1.15,2013-09-01 19:20:00,
2013-09-01 14:25:00,82.2,58.1,29.79,NNE,18,2.0,5.0,44,0.00,,,0.06,Wunderground v.1.15,2013-09-01 19:25:00,
2013-09-01 14:30:00,82.2,59.4,29.79,NNE,18,2.0,6.0,46,0.00,,,0.06,Wunderground v.1.15,2013-09-01 19:30:00,
2013-09-01 14:35:00,82.0,59.2,29.79,WNW,299,3.0,6.0,46,0.00,,,0.06,Wunderground v.1.15,2013-09-01 19:35:00,
2013-09-01 14:40:00,82.2,60.0,29.79,NW,307,3.0,3.0,47,0.00,,,0.06,Wunderground v.1.15,2013-09-01 19:40:00,
2013-09-01 14:50:00,82.5,60.8,29.79,NW,323,1.0,1.0,48,0.00,,,0.06,Wunderground v.1.15,2013-09-01 19:50:00,
2013-09-01 14:55:00,82.2,60.0,29.79,NNW,339,3.0,7.0,47,0.00,,,0.06,Wunderground v.1.15,2013-09-01 19:55:00,
2013-09-01 15:00:00,82.0,59.8,29.79,North,5,3.0,5.0,47,0.00,,,0.06,Wunderground v.1.15,2013-09-01 20:00:00,
2013-09-01 15:05:00,81.8,59.6,29.79,North,350,3.0,5.0,47,0.00,,,0.06,Wunderground v.1.15,2013-09-01 20:05:00,
2013-09-01 15:10:00,81.7,59.5,29.79,WNW,290,4.0,7.0,47,0.00,,,0.06,Wunderground v.1.15,2013-09-01 20:10:00,
2013-09-01 15:15:00,81.5,60.5,29.79,NNW,341,3.0,7.0,49,0.00,,,0.06,Wunderground v.1.15,2013-09-01 20:15:00,
2013-09-01 15:20:00,81.8,60.2,29.79,North,350,3.0,3.0,48,0.00,,,0.06,Wunderground v.1.15,2013-09-01 20:20:00,
2013-09-01 15:30:00,82.5,60.8,29.79,ENE,60,1.0,7.0,48,0.00,,,0.06,Wunderground v.1.15,2013-09-01 20:30:00,
2013-09-01 15:35:00,82.2,60.0,29.79,NNE,27,3.0,7.0,47,0.00,,,0.06,Wunderground v.1.15,2013-09-01 20:35:00,
2013-09-01 15:40:00,82.3,60.1,29.79,NE,38,3.0,3.0,47,0.00,,,0.06,Wunderground v.1.15,2013-09-01 20:40:00,
2013-09-01 15:45:00,82.2,60.0,29.79,NNW,348,2.0,6.0,47,0.00,,,0.06,Wunderground v.1.15,2013-09-01 20:45:00,
2013-09-01 15:55:00,82.2,60.0,29.79,ENE,59,3.0,3.0,47,0.00,,,0.06,Wunderground v.1.15,2013-09-01 20:55:00,
2013-09-01 16:00:00,82.1,61.0,29.79,NNE,20,2.0,6.0,49,0.00,,,0.06,Wunderground v.1.15,2013-09-01 21:00:00,
2013-09-01 16:05:00,82.2,60.6,29.79,WNW,294,3.0,8.0,48,0.00,,,0.06,Wunderground v.1.15,2013-09-01 21:05:00,
2013-09-01 16:10:00,81.8,60.2,29.79,North,9,4.0,4.0,48,0.00,,,0.06,Wunderground v.1.15,2013-09-01 21:10:00,
2013-09-01 16:15:00,81.4,61.0,29.80,NNE,17,4.0,4.0,50,0.00,,,0.06,Wunderground v.1.15,2013-09-01 21:15:00,
2013-09-01 16:20:00,81.4,61.5,29.80,North,355,3.0,3.0,51,0.00,,,0.06,Wunderground v.1.15,2013-09-01 21:20:00,
2013-09-01 16:25:00,81.6,61.2,29.80,West,277,3.0,3.0,50,0.00,,,0.06,Wunderground v.1.15,2013-09-01 21:25:00,
2013-09-01 16:30:00,81.5,61.1,29.80,NE,34,3.0,5.0,50,0.00,,,0.06,Wunderground v.1.15,2013-09-01 21:30:00,
2013-09-01 16:40:00,81.1,61.3,29.80,NNW,336,3.0,3.0,51,0.00,,,0.06,Wunderground v.1.15,2013-09-01 21:40:00,
2013-09-01 16:50:00,80.7,60.9,29.81,North,5,1.0,1.0,51,0.00,,,0.06,Wunderground v.1.15,2013-09-01 21:50:00,
2013-09-01 16:55:00,79.8,60.6,29.81,NW,306,3.0,3.0,52,0.00,,,0.06,Wunderground v.1.15,2013-09-01 21:55:00,
2013-09-01 17:00:00,79.8,60.6,29.81,North,5,3.0,3.0,52,0.00,,,0.06,Wunderground v.1.15,2013-09-01 22:00:00,
2013-09-01 17:05:00,80.4,61.2,29.81,North,360,2.0,5.0,52,0.00,,,0.06,Wunderground v.1.15,2013-09-01 22:05:00,
2013-09-01 17:10:00,80.3,61.1,29.81,North,350,1.0,1.0,52,0.00,,,0.06,Wunderground v.1.15,2013-09-01 22:10:00,
2013-09-01 17:15:00,80.6,61.3,29.81,North,355,2.0,7.0,52,0.00,,,0.06,Wunderground v.1.15,2013-09-01 22:15:00,
2013-09-01 17:20:00,80.9,61.1,29.81,NNW,342,2.0,3.0,51,0.00,,,0.06,Wunderground v.1.15,2013-09-01 22:20:00,
2013-09-01 17:30:00,80.0,60.8,29.81,NNE,16,1.0,1.0,52,0.00,,,0.06,Wunderground v.1.15,2013-09-01 22:30:00,
2013-09-01 17:35:00,79.4,60.8,29.81,NW,306,0.0,1.0,53,0.00,,,0.06,Wunderground v.1.15,2013-09-01 22:35:00,
2013-09-01 17:40:00,78.8,60.2,29.81,WNW,302,0.0,0.0,53,0.00,,,0.06,Wunderground v.1.15,2013-09-01 22:40:00,
2013-09-01 17:45:00,78.8,61.3,29.81,East,101,0.0,0.0,55,0.00,,,0.06,Wunderground v.1.15,2013-09-01 22:45:00,
2013-09-01 17:55:00,79.5,60.3,29.81,NNW,345,1.0,4.0,52,0.00,,,0.06,Wunderground v.1.15,2013-09-01 22:55:00,
2013-09-01 18:00:00,79.6,60.4,29.81,ENE,57,2.0,2.0,52,0.00,,,0.06,Wunderground v.1.15,2013-09-01 23:00:00,
2013-09-01 18:05:00,79.6,60.4,29.81,North,355,1.0,2.0,52,0.00,,,0.06,Wunderground v.1.15,2013-09-01 23:05:00,
2013-09-01 18:10:00,79.6,60.4,29.81,NW,326,0.0,0.0,52,0.00,,,0.06,Wunderground v.1.15,2013-09-01 23:10:00,
2013-09-01 18:15:00,79.3,60.7,29.81,WNW,303,0.0,0.0,53,0.00,,,0.06,Wunderground v.1.15,2013-09-01 23:15:00,
2013-09-01 18:20:00,78.9,60.8,29.82,WNW,296,0.0,0.0,54,0.00,,,0.06,Wunderground v.1.15,2013-09-01 23:20:00,
2013-09-01 18:30:00,78.3,60.8,29.82,NNW,327,0.0,0.0,55,0.00,,,0.06,Wunderground v.1.15,2013-09-01 23:30:00,
2013-09-01 18:35:00,78.1,60.6,29.82,NNE,25,0.0,0.0,55,0.00,,,0.06,Wunderground v.1.15,2013-09-01 23:35:00,
2013-09-01 18:40:00,77.7,60.2,29.81,North,355,0.0,0.0,55,0.00,,,0.06,Wunderground v.1.15,2013-09-01 23:40:00,
2013-09-01 18:45:00,77.4,60.5,29.82,NW,323,0.0,0.0,56,0.00,,,0.06,Wunderground v.1.15,2013-09-01 23:45:00,
2013-09-01 18:50:00,77.2,60.3,29.82,NNW,345,0.0,0.0,56,0.00,,,0.06,Wunderground v.1.15,2013-09-01 23:50:00,
2013-09-01 18:55:00,77.0,60.6,29.82,NW,315,0.0,0.0,57,0.00,,,0.06,Wunderground v.1.15,2013-09-01 23:55:00,
2013-09-01 19:05:00,76.6,60.7,29.82,North,9,0.0,0.0,58,0.00,,,0.06,Wunderground v.1.15,2013-09-02 00:05:00,
2013-09-01 19:10:00,76.3,60.9,29.82,NW,317,0.0,0.0,59,0.00,,,0.06,Wunderground v.1.15,2013-09-02 00:10:00,
2013-09-01 19:15:00,76.1,61.2,29.82,NW,308,0.0,0.0,60,0.00,,,0.06,Wunderground v.1.15,2013-09-02 00:15:00,
2013-09-01 19:20:00,75.8,61.4,29.82,NW,309,0.0,0.0,61,0.00,,,0.06,Wunderground v.1.15,2013-09-02 00:20:00,
2013-09-01 19:30:00,75.3,61.4,29.82,North,9,0.0,0.0,62,0.00,,,0.06,Wunderground v.1.15,2013-09-02 00:30:00,
2013-09-01 19:35:00,75.0,61.5,29.82,NNW,343,0.0,0.0,63,0.00,,,0.06,Wunderground v.1.15,2013-09-02 00:35:00,
2013-09-01 19:40:00,74.8,61.4,29.82,North,11,0.0,0.0,63,0.00,,,0.06,Wunderground v.1.15,2013-09-02 00:40:00,
2013-09-01 19:45:00,74.5,61.5,29.82,NNE,13,0.0,0.0,64,0.00,,,0.06,Wunderground v.1.15,2013-09-02 00:45:00,
2013-09-01 19:50:00,74.3,61.3,29.83,North,9,0.0,0.0,64,0.00,,,0.06,Wunderground v.1.15,2013-09-02 00:50:00,
2013-09-01 19:55:00,74.0,61.5,29.83,NW,321,1.0,1.0,65,0.00,,,0.06,Wunderground v.1.15,2013-09-02 00:55:00,
2013-09-01 20:05:00,73.4,61.8,29.83,North,349,2.0,4.0,67,0.00,,,0.06,Wunderground v.1.15,2013-09-02 01:05:00,
2013-09-01 20:15:00,72.7,61.5,29.84,NW,320,1.0,2.0,68,0.00,,,0.06,Wunderground v.1.15,2013-09-02 01:15:00,
2013-09-01 20:20:00,72.3,61.1,29.84,NNW,346,0.0,6.0,68,0.00,,,0.06,Wunderground v.1.15,2013-09-02 01:20:00,
2013-09-01 20:25:00,71.9,61.2,29.84,North,355,1.0,6.0,69,0.00,,,0.06,Wunderground v.1.15,2013-09-02 01:25:00,
2013-09-01 20:35:00,71.3,61.0,29.84,North,350,0.0,1.0,70,0.00,,,0.06,Wunderground v.1.15,2013-09-02 01:35:00,
2013-09-01 20:40:00,71.0,60.7,29.85,ESE,121,0.0,0.0,70,0.00,,,0.06,Wunderground v.1.15,2013-09-02 01:40:00,
2013-09-01 20:45:00,70.8,60.9,29.85,NW,317,0.0,0.0,71,0.00,,,0.06,Wunderground v.1.15,2013-09-02 01:45:00,
2013-09-01 20:50:00,70.5,60.6,29.85,NNW,333,0.0,0.0,71,0.00,,,0.06,Wunderground v.1.15,2013-09-02 01:50:00,
2013-09-01 20:55:00,70.2,60.7,29.85,North,349,0.0,0.0,72,0.00,,,0.06,Wunderground v.1.15,2013-09-02 01:55:00,
2013-09-01 21:00:00,69.8,60.4,29.85,NNE,17,0.0,0.0,72,0.00,,,0.06,Wunderground v.1.15,2013-09-02 02:00:00,
2013-09-01 21:05:00,69.5,60.5,29.86,NNE,19,0.0,0.0,73,0.00,,,0.06,Wunderground v.1.15,2013-09-02 02:05:00,
2013-09-01 21:10:00,69.3,60.3,29.86,NNW,344,0.0,0.0,73,0.00,,,0.06,Wunderground v.1.15,2013-09-02 02:10:00,
2013-09-01 21:15:00,69.1,60.1,29.86,NNE,16,0.0,0.0,73,0.00,,,0.06,Wunderground v.1.15,2013-09-02 02:15:00,
2013-09-01 21:25:00,68.7,60.1,29.86,NW,317,0.0,0.0,74,0.00,,,0.06,Wunderground v.1.15,2013-09-02 02:25:00,
2013-09-01 21:30:00,68.4,60.2,29.87,NNE,15,0.0,0.0,75,0.00,,,0.06,Wunderground v.1.15,2013-09-02 02:30:00,
2013-09-01 21:35:00,68.1,59.9,29.87,NW,318,0.0,0.0,75,0.00,,,0.06,Wunderground v.1.15,2013-09-02 02:35:00,
2013-09-01 21:40:00,67.8,60.0,29.87,North,5,0.0,0.0,76,0.00,,,0.06,Wunderground v.1.15,2013-09-02 02:40:00,
2013-09-01 21:50:00,67.4,59.9,29.87,North,5,0.0,0.0,77,0.00,,,0.06,Wunderground v.1.15,2013-09-02 02:50:00,
2013-09-01 21:55:00,67.1,59.6,29.87,North,355,0.0,0.0,77,0.00,,,0.06,Wunderground v.1.15,2013-09-02 02:55:00,
2013-09-01 22:00:00,66.8,59.7,29.88,North,9,0.0,0.0,78,0.00,,,0.06,Wunderground v.1.15,2013-09-02 03:00:00,
2013-09-01 22:05:00,66.5,59.4,29.88,NNE,15,0.0,0.0,78,0.00,,,0.06,Wunderground v.1.15,2013-09-02 03:05:00,
2013-09-01 22:10:00,66.3,59.6,29.88,North,5,0.0,0.0,79,0.00,,,0.06,Wunderground v.1.15,2013-09-02 03:10:00,
2013-09-01 22:15:00,66.1,59.4,29.88,North,5,0.0,0.0,79,0.00,,,0.06,Wunderground v.1.15,2013-09-02 03:15:00,
2013-09-01 22:20:00,66.0,59.3,29.88,NNW,328,0.0,0.0,79,0.00,,,0.06,Wunderground v.1.15,2013-09-02 03:20:00,
2013-09-01 22:25:00,65.9,59.2,29.88,NNE,17,0.0,0.0,79,0.00,,,0.06,Wunderground v.1.15,2013-09-02 03:25:00,
2013-09-01 22:35:00,65.7,59.0,29.88,NW,307,0.0,0.0,79,0.00,,,0.06,Wunderground v.1.15,2013-09-02 03:35:00,
2013-09-01 22:40:00,65.7,59.0,29.88,NNW,333,0.0,0.0,79,0.00,,,0.06,Wunderground v.1.15,2013-09-02 03:40:00,
2013-09-01 22:45:00,65.7,59.0,29.88,NNE,13,0.0,0.0,79,0.00,,,0.06,Wunderground v.1.15,2013-09-02 03:45:00,
2013-09-01 22:50:00,65.6,58.9,29.88,North,355,0.0,0.0,79,0.00,,,0.06,Wunderground v.1.15,2013-09-02 03:50:00,
2013-09-01 23:00:00,65.4,59.1,29.88,North,360,0.0,0.0,80,0.00,,,0.06,Wunderground v.1.15,2013-09-02 04:00:00,
2013-09-01 23:05:00,65.3,59.0,29.89,North,351,0.0,0.0,80,0.00,,,0.06,Wunderground v.1.15,2013-09-02 04:05:00,
2013-09-01 23:10:00,65.1,58.8,29.89,NNE,13,0.0,0.0,80,0.00,,,0.06,Wunderground v.1.15,2013-09-02 04:10:00,
2013-09-01 23:15:00,65.0,59.0,29.89,North,5,0.0,0.0,81,0.00,,,0.06,Wunderground v.1.15,2013-09-02 04:15:00,
2013-09-01 23:20:00,64.7,58.7,29.89,WNW,303,0.0,0.0,81,0.00,,,0.06,Wunderground v.1.15,2013-09-02 04:20:00,
2013-09-01 23:25:00,64.5,58.5,29.89,NNW,346,0.0,0.0,81,0.00,,,0.06,Wunderground v.1.15,2013-09-02 04:25:00,
2013-09-01 23:30:00,64.4,58.8,29.89,North,9,0.0,0.0,82,0.00,,,0.06,Wunderground v.1.15,2013-09-02 04:30:00,
2013-09-01 23:35:00,64.3,58.7,29.89,NNE,14,0.0,0.0,82,0.00,,,0.06,Wunderground v.1.15,2013-09-02 04:35:00,
2013-09-01 23:40:00,64.2,58.6,29.89,NNE,12,0.0,0.0,82,0.00,,,0.06,Wunderground v.1.15,2013-09-02 04:40:00,
2013-09-01 23:45:00,64.0,58.7,29.89,NNW,333,0.0,0.0,83,0.00,,,0.06,Wunderground v.1.15,2013-09-02 04:45:00,
2013-09-01 23:50:00,63.9,58.6,29.89,North,5,0.0,0.0,83,0.00,,,0.06,Wunderground v.1.15,2013-09-02 04:50:00,
2013-09-01 23:55:00,63.8,58.5,29.89,North,360,0.0,0.0,83,0.00,,,0.06,Wunderground v.1.15,2013-09-02 04:55:00,